(348189) = 2004 PP62 = 2008 SC124

Discovered at Socorro on 2004-08-10 by LINEAR.

Orbit

Orbit type: Main Belt

Note: WebGL enabled browser required.

epoch2024-03-31.0
epoch JD2460400.5
perihelion date2023-06-14.69643
perihelion JD2460110.19643
argument of perihelion (°)161.87201
ascending node (°)240.64484
inclination (°)1.70448
eccentricity0.2091115
perihelion distance (AU)1.8704588
Tisserand w.r.t. Jupiter3.5
ΔV w.r.t. Earth (km/sec)8.5
semimajor axis (AU)2.3650095
mean anomaly (°)78.66959
mean daily motion (°/day)0.27099080
aphelion distance (AU)2.860
period (years)3.64
P-vector [x]0.73695865
P-vector [y]0.61642139
P-vector [z]0.27733846
Q-vector [x]-0.67544048
Q-vector [y]0.68731169
Q-vector [z]0.26717560
absolute magnitude17.37
phase slope0.15
uncertainty0
referenceMPEC 2024-D64
observations used353
oppositions12
arc length (days)7604
first opposition used2003
last opposition used2024
residual rms (arc-secs)0.75
perturbers coarse indicatorM-v
perturbers precise indicator003Ek
first observation date used2003-04-25.0
last observation date used2024-02-18.0
computer nameMPCLINUX
JD of orbit computation2456819.673743
perihelion JD uncertainty (days)6.0649E-05
argument of perihelion uncertainty (°)1.6532E-04
ascending node uncertainty (°)1.6494E-04
inclination uncertainty (°)5.7347E-06
eccentricity uncertainty 6.8580E-08
perihelion distance uncertainty (AU)1.5044E-07
Minimum Orbit Intersection Distances (in AU)
for orbit epoch: 2460400.5, reference: E2024-D64
Mercury1.5496
Venus1.14828
Earth0.87942
Mars0.38689
Jupiter2.54214
Saturn6.83269
Uranus15.7525
Neptune27.7856

Observations

363 total observations over interval: 2003 04 25.31538 – 2024 02 18.327546
These data are available for download (format description).

Date (UT) J2000 RA J2000 Dec Magn Location Ref
2003 04 25.31538 14 06 09.44 -14 01 24.4 21.7 V 691 – Steward Observatory, Kitt Peak-Spacewatch MPS 259227
2003 04 25.34506 14 06 07.70 -14 01 15.1 21.1 V 691 – Steward Observatory, Kitt Peak-Spacewatch MPS 259227
2003 04 25.37213 14 06 06.13 -14 01 06.1 21.3 V 691 – Steward Observatory, Kitt Peak-Spacewatch MPS 259227
2004 08 10.22164 20 57 25.38 -14 07 27.9 20.0   704 – Lincoln Laboratory ETS, New Mexico MPS 111252
2004 08 10.23235 20 57 24.72 -14 07 31.1 20.1   704 – Lincoln Laboratory ETS, New Mexico MPS 111252
2004 08 10.23392 20 57 24.64 -14 07 31.7 20.2   704 – Lincoln Laboratory ETS, New Mexico MPS 111252
2004 08 10.24310 20 57 23.99 -14 07 34.2 20.7   704 – Lincoln Laboratory ETS, New Mexico MPS 111252
2004 08 10.24409 20 57 23.97 -14 07 34.3 20.4   704 – Lincoln Laboratory ETS, New Mexico MPS 111252
2004 08 10.25430 20 57 23.36 -14 07 37.0 20.3   704 – Lincoln Laboratory ETS, New Mexico MPS 111252
2004 08 10.25799 20 57 23.14 -14 07 36.7 20.2   704 – Lincoln Laboratory ETS, New Mexico MPS 111252
2004 08 10.26442 20 57 22.67 -14 07 38.6 20.1   704 – Lincoln Laboratory ETS, New Mexico MPS 111252
2004 08 10.26864 20 57 22.41 -14 07 39.7 20.3   704 – Lincoln Laboratory ETS, New Mexico MPS 111252
2004 08 11.21481 20 56 25.28 -14 11 27.4 19.8   704 – Lincoln Laboratory ETS, New Mexico MPS 111897
2004 08 11.22486 20 56 24.82 -14 11 29.3 19.9   704 – Lincoln Laboratory ETS, New Mexico MPS 111897
2004 08 11.23560 20 56 24.00 -14 11 31.9 19.8   704 – Lincoln Laboratory ETS, New Mexico MPS 111897
2004 08 11.24565 20 56 23.38 -14 11 35.1 20.4   704 – Lincoln Laboratory ETS, New Mexico MPS 111897
2004 08 11.25903 20 56 22.47 -14 11 38.4 19.5   704 – Lincoln Laboratory ETS, New Mexico MPS 111252
2004 08 11.28491 20 56 20.87 -14 11 44.6 19.9   704 – Lincoln Laboratory ETS, New Mexico MPS 111252
2004 08 11.29834 20 56 20.01 -14 11 47.4 20.4   704 – Lincoln Laboratory ETS, New Mexico MPS 111252
2004 08 11.30833 20 56 19.37 -14 11 49.5 20.3   704 – Lincoln Laboratory ETS, New Mexico MPS 111252
2004 08 11.31828 20 56 18.75 -14 11 51.7 19.8   704 – Lincoln Laboratory ETS, New Mexico MPS 111252
2004 08 12.24367 20 55 23.16 -14 15 35.2 19.3   704 – Lincoln Laboratory ETS, New Mexico MPS 111252
2004 08 12.25349 20 55 22.50 -14 15 37.5 19.7   704 – Lincoln Laboratory ETS, New Mexico MPS 111252
2004 08 12.26336 20 55 21.96 -14 15 39.2 20.0   704 – Lincoln Laboratory ETS, New Mexico MPS 111252
2004 08 12.27313 20 55 21.29 -14 15 42.4 19.7   704 – Lincoln Laboratory ETS, New Mexico MPS 111252
2004 08 22.14069 20 45 57.62 -14 54 23.8 20.5 V 691 – Steward Observatory, Kitt Peak-Spacewatch MPS 112231
2004 08 22.16768 20 45 56.20 -14 54 29.1 20.1 V 691 – Steward Observatory, Kitt Peak-Spacewatch MPS 112231
2004 08 22.19457 20 45 54.70 -14 54 35.3 20.0 V 691 – Steward Observatory, Kitt Peak-Spacewatch MPS 112231
2005 10 24.61170 09 48 34.126 +11 49 05.89 20.9 R 568 – Maunakea MPS 259227
2005 10 24.61684 09 48 34.591 +11 49 03.25 21.0 R 568 – Maunakea MPS 259227
2005 10 24.62197 09 48 35.060 +11 49 00.62 21.0 R 568 – Maunakea MPS 259227
2006 02 01.39631 10 41 08.70 +05 22 00.2 20.5 V G96 – Mt. Lemmon Survey MPS 259227
2006 02 01.40443 10 41 08.26 +05 22 02.8 20.4 V G96 – Mt. Lemmon Survey MPS 259227
2006 02 01.41254 10 41 07.87 +05 22 04.5 20.4 V G96 – Mt. Lemmon Survey MPS 259227
2006 02 01.42065 10 41 07.47 +05 22 06.6 20.7 V G96 – Mt. Lemmon Survey MPS 259227
2006 02 25.17865 10 18 46.93 +07 28 00.5 20.3 V 691 – Steward Observatory, Kitt Peak-Spacewatch MPS 259227
2006 02 25.19591 10 18 45.85 +07 28 06.8 20.7 V 691 – Steward Observatory, Kitt Peak-Spacewatch MPS 259227
2006 02 25.21319 10 18 44.79 +07 28 12.8 20.8 V 691 – Steward Observatory, Kitt Peak-Spacewatch MPS 259227
2008 09 22.35171 02 06 12.52 +15 10 33.4 19.3 V G96 – Mt. Lemmon Survey MPS 258204
2008 09 22.36127 02 06 12.42 +15 10 32.8 19.6 V G96 – Mt. Lemmon Survey MPS 258204
2008 09 22.36506 02 06 12.34 +15 10 32.5 19.8 V 691 – Steward Observatory, Kitt Peak-Spacewatch MPS 259401
2008 09 22.37091 02 06 12.24 +15 10 32.1 19.8 V G96 – Mt. Lemmon Survey MPS 258204
2008 09 22.38049 02 06 12.13 +15 10 31.2 20.2 V G96 – Mt. Lemmon Survey MPS 258204
2008 09 22.38268 02 06 12.06 +15 10 31.3 20.0 V 691 – Steward Observatory, Kitt Peak-Spacewatch MPS 259401
2008 09 22.40375 02 06 11.73 +15 10 29.4 19.7 V 691 – Steward Observatory, Kitt Peak-Spacewatch MPS 259401
2008 09 26.30538 02 05 07.52 +15 03 47.5   691 – Steward Observatory, Kitt Peak-Spacewatch MPS 258204
2008 09 26.32300 02 05 07.10 +15 03 45.3   691 – Steward Observatory, Kitt Peak-Spacewatch MPS 258204
2008 09 26.34062 02 05 06.69 +15 03 42.8   691 – Steward Observatory, Kitt Peak-Spacewatch MPS 258204
2008 09 28.38918 02 04 20.24 +14 58 53.1 19.2 V G96 – Mt. Lemmon Survey MPS 258204
2008 09 28.39608 02 04 20.06 +14 58 52.2 19.2 V G96 – Mt. Lemmon Survey MPS 258204
2008 09 28.40288 02 04 19.88 +14 58 50.9 19.1 V G96 – Mt. Lemmon Survey MPS 258204
2008 09 28.40968 02 04 19.70 +14 58 50.0 19.2 V G96 – Mt. Lemmon Survey MPS 258204
2008 10 02.28523 02 02 30.63 +14 47 18.0 19.0   704 – Lincoln Laboratory ETS, New Mexico MPS 258204
2008 10 02.29755 02 02 30.18 +14 47 15.4 20.0   704 – Lincoln Laboratory ETS, New Mexico MPS 258204
2008 10 02.30980 02 02 29.80 +14 47 13.5 20.1   704 – Lincoln Laboratory ETS, New Mexico MPS 258204
2008 10 02.33445 02 02 28.89 +14 47 08.0 20.0   704 – Lincoln Laboratory ETS, New Mexico MPS 258204
2008 10 06.31330 02 00 09.47 +14 32 09.8 19.5 V 691 – Steward Observatory, Kitt Peak-Spacewatch MPS 259401
2008 10 06.33093 02 00 08.74 +14 32 05.5 19.2 V 691 – Steward Observatory, Kitt Peak-Spacewatch MPS 259401
2008 10 06.34854 02 00 08.00 +14 32 01.1 19.2 V 691 – Steward Observatory, Kitt Peak-Spacewatch MPS 259401
2008 10 06.35944 02 00 07.63 +14 31 58.5 18.9 V 703 – Catalina Sky Survey MPS 259401
2008 10 06.36603 02 00 07.30 +14 31 56.5 18.9 V 703 – Catalina Sky Survey MPS 259401
2008 10 06.37263 02 00 07.02 +14 31 55.1 18.7 V 703 – Catalina Sky Survey MPS 259401
2008 10 06.37924 02 00 06.76 +14 31 53.7 18.9 V 703 – Catalina Sky Survey MPS 259401
2008 10 20.15037 01 49 37.50 +13 20 34.2 18.5 V 691 – Steward Observatory, Kitt Peak-Spacewatch MPS 260574
2008 10 20.16543 01 49 36.81 +13 20 29.6 18.5 V 691 – Steward Observatory, Kitt Peak-Spacewatch MPS 260574
2008 10 20.18051 01 49 35.97 +13 20 23.4 18.7 V 691 – Steward Observatory, Kitt Peak-Spacewatch MPS 260574
2008 10 20.31240 01 49 28.92 +13 19 36.4 18.6 V G96 – Mt. Lemmon Survey MPS 260574
2008 10 20.31743 01 49 28.63 +13 19 34.5 18.8 V G96 – Mt. Lemmon Survey MPS 260574
2008 10 20.32245 01 49 28.38 +13 19 32.8 18.9 V G96 – Mt. Lemmon Survey MPS 260574
2008 10 20.32751 01 49 28.09 +13 19 30.9 19.0 V G96 – Mt. Lemmon Survey MPS 260574
2008 10 26.25103 01 44 29.08 +12 43 10.2 18.9   704 – Lincoln Laboratory ETS, New Mexico MPS 261481
2008 10 26.26263 01 44 28.44 +12 43 05.2 19.2   704 – Lincoln Laboratory ETS, New Mexico MPS 261481
2008 10 26.27413 01 44 27.89 +12 43 01.7 19.2   704 – Lincoln Laboratory ETS, New Mexico MPS 261481
2008 10 26.28563 01 44 27.21 +12 42 56.5 19.8   704 – Lincoln Laboratory ETS, New Mexico MPS 261481
2008 10 26.29723 01 44 26.60 +12 42 51.7 19.9   704 – Lincoln Laboratory ETS, New Mexico MPS 261481
2008 10 30.23890 01 41 14.60 +12 18 25.4 18.5 V 703 – Catalina Sky Survey MPS 261481
2008 10 30.24559 01 41 14.20 +12 18 21.8 18.7 V 703 – Catalina Sky Survey MPS 261481
2008 10 30.25221 01 41 13.92 +12 18 20.7 18.9 V 703 – Catalina Sky Survey MPS 261481
2008 10 30.25887 01 41 13.56 +12 18 17.8 19.0 V 703 – Catalina Sky Survey MPS 261481
2008 11 01.20195 01 39 43.26 +12 06 26.9 18.7   704 – Lincoln Laboratory ETS, New Mexico MPS 263171
2008 11 01.21362 01 39 42.73 +12 06 22.7 19.1   704 – Lincoln Laboratory ETS, New Mexico MPS 263171
2008 11 01.22532 01 39 42.13 +12 06 18.3 19.3   704 – Lincoln Laboratory ETS, New Mexico MPS 263171
2008 11 01.23704 01 39 41.56 +12 06 13.7 19.6   704 – Lincoln Laboratory ETS, New Mexico MPS 263171
2008 11 01.24872 01 39 40.97 +12 06 09.5 19.0   704 – Lincoln Laboratory ETS, New Mexico MPS 263171
2008 12 04.16140 01 30 07.12 +10 10 38.7 19.7 V G96 – Mt. Lemmon Survey MPS 267490
